Weather Roundup
Issued by NWS Chicago, IL

Home | Current Version | Previous Version | Graphics & Text | Print | Product List | Glossary On
Versions: 1 2 3 4 5 6 7 8 9 10 11 12 13 14 15 16 17 18 19 20 21 22 23 24 25 26 27 28 29 30 31 32 33 34 35 36 37 38 39 40 41 42 43 44 45 46 47 48 49 50
000
NZUS59 KLOT 200100
HRRLOT

CHICAGO AREA WEATHER ROUNDUP
NATIONAL WEATHER SERVICE CHICAGO/ROMEOVILLE IL
800 PM CDT TUE AUG 19 2014

NOTE: "FAIR" INDICATES FEW OR NO CLOUDS BELOW 12,000 FEET WITH NO
SIGNIFICANT WEATHER AND/OR OBSTRUCTIONS TO VISIBILITY.

* THESE STATIONS ARE NOT UNDER NWS QUALITY CONTROL. THEY ALSO MAY NOT
  REPORT WEATHER SUCH AS PRECIPITATION OR FOG.

ILZ005-006-012>014-019>023-200200-
NORTHEAST ILLINOIS

CITY           SKY/WX    TMP DP  RH WIND       PRES   REMARKS
OHARE          LGT RAIN  76  65  68 W7        29.72R
MIDWAY         MOCLDY    81  68  64 SW9       29.72R HX  84
AURORA         PTCLDY    74  66  76 W6        29.74R
WAUKEGAN       PTCLDY    76  64  66 CALM      29.72R
DUPAGE AIRPORT PTCLDY    78  65  63 W8        29.73R HX  80
WHEELING       LGT RAIN  77  67  71 MISG      29.74R
NORTHERLY IS     N/A     80  64  58 SW7         N/A  HX  82
$$

WIZ051-052-058>065-066-070>072-200200-
SOUTHEAST WISCONSIN

CITY           SKY/WX    TMP DP  RH WIND       PRES   REMARKS
MILWAUKEE      PTCLDY    74  65  73 CALM      29.72R
KENOSHA*       PTCLDY    74  66  76 CALM      29.73R
RACINE*        PTCLDY    73  66  78 CALM      29.73S
WAUKESHA       PTCLDY    72  63  73 W7        29.74R
$$

INZ001>003-010>013-019-020-200200-
NORTHWEST INDIANA

CITY           SKY/WX    TMP DP  RH WIND       PRES   REMARKS
GARY*          PTCLDY    77  68  73 S6        29.74S
MICHIGAN CITY* NOT AVBL
RENSSELAER*    NOT AVBL
VALPARAISO     MOCLDY    75  67  76 S6        29.76S
$$

LMZ740>746-200200-
SOUTHERN LAKE MICHIGAN

STATION/POSITION TIME  SKY/WX   TEMP WIND        PRES    VSBY
                                AIR  DIR/SP/G
                 (UTC)          (F)  (DEG/KT/KT) (MB)    (MI)
HARRISON CRIB    0000            81  220/ 14/ 16   N/A
BURNHAM HARBOR   0100            80  210/  4/ 12   N/A
CALUMET HARBOR   0000            79  200/  8/ 10 1005.4R
BURNS HARBOR     0100            78  190/ 11/ 15   N/A
MICHIGAN CITY    0000            77  180/ 13/ 16   N/A
$$

ABBREVIATIONS USED IN REMARKS
   TC - TEMPERATURE IN CELSIUS
  WCI - WIND CHILL INDEX
   HX - HEAT INDEX
  VSB - VISIBILITY
$$


USA.gov is the U.S. government's official web portal to all federal, state and local government web resources and services.